GIA6112 WIMM-OEMA

Flight info

Callsign GIA6112
Flight time N/A
Altitude 36000
Route DUAMO DCT BOSTI B466 MMV W117 BIA W101W GUNIM N563 REXOD L883 UMILA N569 TOKRA Y511 ELONU
Aircraft A333/H-SDE1E2E3FGHIJ1J4J5M1P2RWXY/HB1D1

Departure

Time 2026-04-25 18:44
Airport Kualanamu International Airport (WIMM)

Arrival

Time N/A
Airport Prince Mohammad Bin Abdulaziz Airport (OEMA)
Time Latitude Longitude Altitude Speed Heading
2026-04-25 18:19 3.63866 98.87869 44 ft 0 kts 225°
2026-04-25 18:32 3.63872 98.87875 42 ft 4 kts 225°
2026-04-25 18:32 3.63891 98.87894 44 ft 3 kts 224°
2026-04-25 18:33 3.63906 98.87910 44 ft 4 kts 237°
2026-04-25 18:33 3.63913 98.87931 44 ft 4 kts 300°
2026-04-25 18:33 3.63896 98.87949 44 ft 4 kts 315°
2026-04-25 18:33 3.63877 98.87968 44 ft 4 kts 315°
2026-04-25 18:34 3.63863 98.87982 44 ft 0 kts 315°
2026-04-25 18:36 3.63867 98.87978 44 ft 2 kts 315°
2026-04-25 18:36 3.63879 98.87969 44 ft 3 kts 325°
2026-04-25 18:36 3.63900 98.87963 44 ft 4 kts 353°
2026-04-25 18:36 3.63921 98.87972 44 ft 5 kts 25°
2026-04-25 18:37 3.63957 98.87995 44 ft 7 kts 42°
2026-04-25 18:37 3.63996 98.88034 44 ft 8 kts 45°
2026-04-25 18:37 3.64037 98.88076 42 ft 9 kts 45°
2026-04-25 18:37 3.64083 98.88122 44 ft 10 kts 45°
2026-04-25 18:38 3.64132 98.88140 44 ft 7 kts 345°
2026-04-25 18:38 3.64170 98.88110 44 ft 7 kts 314°
2026-04-25 18:38 3.64208 98.88071 44 ft 9 kts 315°
2026-04-25 18:38 3.64253 98.88027 44 ft 10 kts 315°
2026-04-25 18:39 3.64307 98.87985 43 ft 9 kts 350°
2026-04-25 18:39 3.64364 98.88014 43 ft 10 kts 46°
2026-04-25 18:39 3.64419 98.88070 42 ft 12 kts 44°
2026-04-25 18:39 3.64482 98.88132 43 ft 13 kts 45°
2026-04-25 18:40 3.64545 98.88194 43 ft 13 kts 45°
2026-04-25 18:40 3.64607 98.88257 42 ft 13 kts 45°
2026-04-25 18:40 3.64670 98.88319 43 ft 13 kts 45°
2026-04-25 18:40 3.64731 98.88380 42 ft 11 kts 45°
2026-04-25 18:41 3.64794 98.88412 43 ft 9 kts 348°
2026-04-25 18:41 3.64844 98.88373 41 ft 10 kts 315°
2026-04-25 18:41 3.64901 98.88316 40 ft 13 kts 315°
2026-04-25 18:41 3.64961 98.88248 38 ft 7 kts 287°
2026-04-25 18:42 3.64950 98.88217 39 ft 2 kts 235°
2026-04-25 18:42 3.64940 98.88208 39 ft 3 kts 226°
2026-04-25 18:42 3.64931 98.88198 39 ft 0 kts 225°
2026-04-25 18:43 3.64915 98.88182 39 ft 14 kts 225°
2026-04-25 18:43 3.64704 98.87971 41 ft 71 kts 224°
2026-04-25 18:44 3.64222 98.87494 38 ft 123 kts 225°
2026-04-25 18:44 3.63515 98.86789 39 ft 167 kts 225°
2026-04-25 18:44 3.62622 98.85914 421 ft 181 kts 224°
2026-04-25 18:44 3.61734 98.85051 1165 ft 177 kts 224°
2026-04-25 18:45 3.60852 98.84166 1751 ft 184 kts 223°
2026-04-25 18:45 3.59903 98.83204 1989 ft 206 kts 224°
2026-04-25 18:45 3.58874 98.82115 2162 ft 228 kts 234°
2026-04-25 18:45 3.58399 98.80555 2299 ft 250 kts 272°
2026-04-25 18:46 3.58989 98.78881 2568 ft 264 kts 303°
2026-04-25 18:46 3.60073 98.77379 3099 ft 268 kts 306°
2026-04-25 18:46 3.61164 98.75850 3666 ft 271 kts 304°
2026-04-25 18:46 3.62200 98.74265 4254 ft 273 kts 302°
2026-04-25 18:47 3.63197 98.72634 4856 ft 276 kts 301°
2026-04-25 18:47 3.64176 98.70975 5457 ft 278 kts 300°
2026-04-25 18:47 3.65146 98.69292 6050 ft 281 kts 300°
2026-04-25 18:47 3.66124 98.67580 6650 ft 283 kts 300°
2026-04-25 18:48 3.67126 98.65873 7239 ft 286 kts 305°
2026-04-25 18:48 3.68405 98.64338 7814 ft 289 kts 314°
2026-04-25 18:48 3.69815 98.62893 8435 ft 291 kts 315°
2026-04-25 18:48 3.71255 98.61452 9053 ft 294 kts 316°
2026-04-25 18:49 3.72711 98.59994 9571 ft 298 kts 315°
2026-04-25 18:49 3.74141 98.58555 10463 ft 289 kts 316°
2026-04-25 18:49 3.75571 98.57113 10978 ft 293 kts 316°
2026-04-25 18:49 3.76991 98.55678 11681 ft 282 kts 316°
2026-04-25 18:50 3.77887 98.54772 12174 ft 271 kts 316°
2026-04-25 18:50 3.79628 98.53012 13135 ft 260 kts 316°
2026-04-25 18:50 3.80907 98.51719 13551 ft 267 kts 317°
2026-04-25 18:50 3.82253 98.50362 13702 ft 283 kts 317°
2026-04-25 18:51 3.83675 98.48926 13870 ft 298 kts 316°
2026-04-25 18:51 3.84153 98.48443 13927 ft 303 kts 316°
2026-04-25 18:51 3.86741 98.45826 14208 ft 329 kts 316°
2026-04-25 18:51 3.88387 98.44161 14342 ft 344 kts 316°
2026-04-25 18:52 3.90112 98.42417 14472 ft 360 kts 316°
2026-04-25 18:52 3.91885 98.40625 14596 ft 374 kts 316°
2026-04-25 18:52 3.93776 98.38716 14765 ft 387 kts 316°
2026-04-25 18:52 3.95698 98.36773 14937 ft 399 kts 316°
2026-04-25 18:53 3.97650 98.34799 15163 ft 408 kts 316°
2026-04-25 18:53 3.99658 98.32768 15533 ft 412 kts 316°
2026-04-25 18:53 4.01682 98.30721 15962 ft 415 kts 316°
2026-04-25 18:53 4.03718 98.28662 16364 ft 418 kts 316°
2026-04-25 18:54 4.07841 98.24492 17149 ft 424 kts 316°
2026-04-25 18:54 4.09921 98.22390 17538 ft 426 kts 316°
2026-04-25 18:54 4.12015 98.20273 17911 ft 428 kts 316°
2026-04-25 18:55 4.14120 98.18146 18268 ft 431 kts 316°
2026-04-25 18:55 4.16236 98.16007 18648 ft 433 kts 316°
2026-04-25 18:55 4.18360 98.13858 19020 ft 435 kts 316°
2026-04-25 18:55 4.20495 98.11698 19370 ft 437 kts 316°
2026-04-25 18:56 4.22637 98.09531 19722 ft 439 kts 316°
2026-04-25 18:56 4.24786 98.07356 20056 ft 440 kts 316°
2026-04-25 18:56 4.26946 98.05171 20357 ft 443 kts 316°
2026-04-25 18:56 4.29117 98.02976 20690 ft 444 kts 316°
2026-04-25 18:57 4.31294 98.00774 20998 ft 446 kts 316°
2026-04-25 18:57 4.33480 97.98562 21308 ft 447 kts 316°
2026-04-25 18:57 4.35673 97.96345 21595 ft 449 kts 316°
2026-04-25 18:57 4.36389 97.95621 21680 ft 450 kts 316°
2026-04-25 18:58 4.40092 97.91878 22165 ft 453 kts 316°
2026-04-25 18:58 4.44541 97.87380 22715 ft 456 kts 316°
2026-04-25 18:58 4.46776 97.85121 22981 ft 458 kts 316°
2026-04-25 18:59 4.51255 97.80619 23512 ft 460 kts 318°
2026-04-25 18:59 4.56502 97.77008 24023 ft 459 kts 338°
2026-04-25 19:00 4.62470 97.74710 24530 ft 461 kts 341°
2026-04-25 19:00 4.65493 97.73613 24773 ft 463 kts 341°
2026-04-25 19:01 4.71569 97.71396 25227 ft 466 kts 341°
2026-04-25 19:01 4.74623 97.70277 25454 ft 468 kts 341°
2026-04-25 19:01 4.77690 97.69151 25671 ft 470 kts 341°
2026-04-25 19:01 4.80761 97.68023 25921 ft 471 kts 341°
2026-04-25 19:02 4.86945 97.65749 26356 ft 475 kts 341°
2026-04-25 19:02 4.90044 97.64608 26575 ft 476 kts 341°
2026-04-25 19:02 4.93159 97.63462 26798 ft 478 kts 341°
2026-04-25 19:03 4.97345 97.61921 27097 ft 480 kts 341°
2026-04-25 19:03 5.02570 97.59998 27456 ft 482 kts 341°
2026-04-25 19:03 5.05726 97.58835 27685 ft 484 kts 341°
2026-04-25 19:04 5.12071 97.56499 28099 ft 487 kts 341°
2026-04-25 19:04 5.15257 97.55326 28315 ft 489 kts 341°
2026-04-25 19:05 5.21656 97.52969 28722 ft 492 kts 341°
2026-04-25 19:05 5.28112 97.50640 29103 ft 494 kts 342°
2026-04-25 19:05 5.31394 97.49588 29292 ft 495 kts 344°
2026-04-25 19:06 5.34698 97.48586 29488 ft 497 kts 344°
2026-04-25 19:06 5.41332 97.46621 29930 ft 497 kts 344°
2026-04-25 19:06 5.44648 97.45631 30200 ft 496 kts 344°
2026-04-25 19:07 5.51248 97.43637 30707 ft 495 kts 344°
2026-04-25 19:07 5.53432 97.42972 30865 ft 495 kts 344°
2026-04-25 19:08 5.60014 97.40964 31351 ft 494 kts 343°
2026-04-25 19:08 5.63301 97.39961 31579 ft 494 kts 343°
2026-04-25 19:09 5.73148 97.36952 32240 ft 493 kts 343°
2026-04-25 19:09 5.75358 97.36274 32403 ft 492 kts 342°
2026-04-25 19:09 5.82445 97.32734 32882 ft 491 kts 323°
2026-04-25 19:10 5.85014 97.30478 33081 ft 491 kts 313°
2026-04-25 19:10 5.87162 97.27828 33286 ft 490 kts 303°
2026-04-25 19:10 5.88859 97.24860 33503 ft 489 kts 296°
2026-04-25 19:10 5.90340 97.21798 33727 ft 487 kts 294°
2026-04-25 19:11 5.91739 97.18700 33933 ft 487 kts 293°
2026-04-25 19:11 5.93103 97.15591 34146 ft 486 kts 293°
2026-04-25 19:11 5.94459 97.12486 34349 ft 485 kts 293°
2026-04-25 19:11 5.95818 97.09389 34524 ft 485 kts 293°
2026-04-25 19:12 5.97187 97.06293 34687 ft 485 kts 293°
2026-04-25 19:12 5.98569 97.03195 34840 ft 485 kts 294°
2026-04-25 19:12 5.99953 97.00105 35020 ft 485 kts 294°
2026-04-25 19:12 6.01327 96.97022 35185 ft 484 kts 294°
2026-04-25 19:13 6.02697 96.93929 35399 ft 483 kts 293°
2026-04-25 19:13 6.04053 96.90858 35598 ft 481 kts 293°
2026-04-25 19:13 6.05410 96.87783 35738 ft 481 kts 293°
2026-04-25 19:13 6.06769 96.84704 35845 ft 482 kts 293°
2026-04-25 19:14 6.08130 96.81620 35882 ft 483 kts 293°
2026-04-25 19:14 6.10854 96.75449 35881 ft 483 kts 293°
2026-04-25 19:15 6.13577 96.69279 35880 ft 483 kts 293°
2026-04-25 19:15 6.16300 96.63109 35880 ft 483 kts 293°
2026-04-25 19:16 6.19022 96.56937 35881 ft 483 kts 293°
2026-04-25 19:16 6.21745 96.50765 35880 ft 483 kts 293°
2026-04-25 19:17 6.24466 96.44593 35881 ft 483 kts 293°
2026-04-25 19:17 6.27186 96.38417 35866 ft 483 kts 293°
2026-04-25 19:18 6.29886 96.32279 35880 ft 483 kts 293°
2026-04-25 19:18 6.32606 96.26106 35879 ft 483 kts 293°
2026-04-25 19:19 6.35329 96.19923 35861 ft 483 kts 293°
2026-04-25 19:19 6.38048 96.13744 35865 ft 483 kts 293°
2026-04-25 19:20 6.40766 96.07565 35863 ft 483 kts 293°
2026-04-25 19:20 6.43484 96.01383 35879 ft 483 kts 293°
2026-04-25 19:21 6.46200 95.95204 35879 ft 483 kts 293°
2026-04-25 19:21 6.50274 95.85928 35880 ft 483 kts 293°
2026-04-25 19:22 6.52991 95.79740 35879 ft 484 kts 293°
2026-04-25 19:23 6.57068 95.70449 35880 ft 484 kts 293°
2026-04-25 19:23 6.61156 95.61154 35880 ft 485 kts 294°
2026-04-25 19:24 6.63894 95.54955 35881 ft 485 kts 294°
2026-04-25 19:25 6.69347 95.42589 35880 ft 485 kts 293°
2026-04-25 19:25 6.72080 95.36385 35881 ft 485 kts 294°
2026-04-25 19:26 6.74815 95.30178 35881 ft 485 kts 294°
2026-04-25 19:26 6.77548 95.23970 35881 ft 485 kts 294°
2026-04-25 19:27 6.79840 95.18762 35881 ft 486 kts 294°
2026-04-25 19:27 6.83017 95.11539 35881 ft 486 kts 294°
2026-04-25 19:28 6.85750 95.05323 35879 ft 486 kts 294°
2026-04-25 19:28 6.88483 94.99106 35872 ft 486 kts 294°
2026-04-25 19:29 6.91216 94.92888 35881 ft 486 kts 294°
2026-04-25 19:29 6.93949 94.86664 35881 ft 486 kts 294°
2026-04-25 19:30 6.96681 94.80441 35881 ft 486 kts 294°
2026-04-25 19:30 6.99411 94.74221 35880 ft 486 kts 294°
2026-04-25 19:31 7.02142 94.67992 35880 ft 487 kts 294°
2026-04-25 19:31 7.04877 94.61751 35880 ft 487 kts 294°
2026-04-25 19:32 7.07612 94.55512 35880 ft 487 kts 294°
2026-04-25 19:32 7.09884 94.50330 35881 ft 487 kts 294°
2026-04-25 19:33 7.13081 94.43031 35880 ft 487 kts 294°
2026-04-25 19:33 7.15813 94.36790 35880 ft 487 kts 294°
2026-04-25 19:34 7.18542 94.30557 35880 ft 486 kts 294°
2026-04-25 19:34 7.21268 94.24327 35879 ft 487 kts 294°
2026-04-25 19:35 7.23994 94.18092 35880 ft 486 kts 294°
2026-04-25 19:35 7.26723 94.11851 35880 ft 487 kts 294°
2026-04-25 19:36 7.29447 94.05620 35888 ft 487 kts 294°
2026-04-25 19:36 7.32171 93.99378 35887 ft 487 kts 294°
2026-04-25 19:37 7.34899 93.93131 35889 ft 487 kts 294°
2026-04-25 19:37 7.37625 93.86884 35888 ft 488 kts 294°
2026-04-25 19:38 7.40353 93.80628 35887 ft 488 kts 294°
2026-04-25 19:38 7.43082 93.74370 35888 ft 488 kts 294°
2026-04-25 19:39 7.45809 93.68113 35888 ft 488 kts 294°
2026-04-25 19:39 7.48533 93.61860 35887 ft 487 kts 294°
2026-04-25 19:40 7.51256 93.55605 35887 ft 487 kts 294°
2026-04-25 19:40 7.53980 93.49346 35877 ft 488 kts 294°
2026-04-25 19:41 7.56701 93.43093 35868 ft 488 kts 294°
2026-04-25 19:41 7.58505 93.38944 35879 ft 488 kts 294°
2026-04-25 19:42 7.62146 93.30567 35871 ft 488 kts 294°
2026-04-25 19:42 7.64865 93.24308 35866 ft 487 kts 294°
2026-04-25 19:43 7.67565 93.18089 35863 ft 488 kts 294°
2026-04-25 19:43 7.70288 93.11816 35868 ft 489 kts 293°
2026-04-25 19:44 7.73010 93.05541 35880 ft 488 kts 293°
2026-04-25 19:44 7.75730 92.99271 35880 ft 489 kts 293°
2026-04-25 19:45 7.78451 92.92992 35879 ft 489 kts 293°
2026-04-25 19:45 7.81175 92.86704 35880 ft 489 kts 293°
2026-04-25 19:46 7.83899 92.80416 35881 ft 489 kts 293°
2026-04-25 19:46 7.86621 92.74128 35881 ft 489 kts 293°
2026-04-25 19:47 7.89334 92.67847 35881 ft 489 kts 293°
2026-04-25 19:47 7.92053 92.61558 35880 ft 489 kts 293°
2026-04-25 19:48 7.94770 92.55274 35881 ft 489 kts 293°
2026-04-25 19:48 7.97486 92.48982 35880 ft 489 kts 293°
2026-04-25 19:49 7.99303 92.44771 35880 ft 490 kts 293°
2026-04-25 19:49 8.02918 92.36390 35886 ft 489 kts 293°
2026-04-25 19:50 8.06983 92.26959 35888 ft 488 kts 293°
2026-04-25 19:51 8.09693 92.20670 35888 ft 489 kts 293°
2026-04-25 19:51 8.12404 92.14374 35888 ft 489 kts 293°
2026-04-25 19:52 8.15113 92.08079 35888 ft 489 kts 293°
2026-04-25 19:52 8.17824 92.01776 35889 ft 489 kts 293°
2026-04-25 19:53 8.20531 91.95476 35888 ft 489 kts 293°
2026-04-25 19:53 8.22783 91.90237 35887 ft 489 kts 293°
2026-04-25 19:54 8.25489 91.83939 35887 ft 489 kts 293°
2026-04-25 19:54 8.28630 91.76623 35889 ft 489 kts 293°
2026-04-25 19:55 8.30896 91.71343 35887 ft 489 kts 293°
2026-04-25 19:55 8.33601 91.65036 35887 ft 489 kts 293°
2026-04-25 19:56 8.36285 91.58775 35887 ft 488 kts 293°
2026-04-25 19:56 8.38983 91.52476 35888 ft 489 kts 293°
2026-04-25 19:57 8.41684 91.46170 35888 ft 490 kts 293°
2026-04-25 19:57 8.44386 91.39856 35887 ft 490 kts 293°
2026-04-25 19:58 8.47088 91.33537 35888 ft 490 kts 293°
2026-04-25 19:58 8.49790 91.27220 35888 ft 490 kts 293°
2026-04-25 19:59 8.52489 91.20907 35887 ft 490 kts 293°
2026-04-25 19:59 8.55187 91.14591 35888 ft 490 kts 293°
2026-04-25 20:00 8.57883 91.08275 35888 ft 490 kts 293°
2026-04-25 20:00 8.60579 91.01956 35889 ft 490 kts 293°
2026-04-25 20:01 8.64623 90.92471 35887 ft 490 kts 294°
2026-04-25 20:01 8.67316 90.86152 35887 ft 489 kts 294°
2026-04-25 20:02 8.70002 90.79845 35888 ft 488 kts 294°
2026-04-25 20:02 8.72665 90.73586 35889 ft 488 kts 294°
2026-04-25 20:03 8.75346 90.67284 35887 ft 488 kts 294°
2026-04-25 20:03 8.78026 90.60986 35887 ft 488 kts 294°
2026-04-25 20:04 8.80704 90.54685 35887 ft 488 kts 294°
2026-04-25 20:04 8.83382 90.48380 35888 ft 488 kts 294°
2026-04-25 20:05 8.86058 90.42077 35887 ft 488 kts 294°
2026-04-25 20:05 8.88732 90.35775 35888 ft 488 kts 294°
2026-04-25 20:06 8.91407 90.29471 35888 ft 488 kts 294°
2026-04-25 20:06 8.94080 90.23162 35888 ft 488 kts 294°
2026-04-25 20:07 8.96748 90.16863 35888 ft 488 kts 294°
2026-04-25 20:07 8.99419 90.10554 35888 ft 488 kts 294°
2026-04-25 20:08 9.02087 90.04248 35888 ft 488 kts 294°
2026-04-25 20:08 9.04754 89.97941 35888 ft 487 kts 294°
2026-04-25 20:09 9.07418 89.91639 35889 ft 487 kts 294°
2026-04-25 20:09 9.10081 89.85338 35887 ft 487 kts 294°
2026-04-25 20:10 9.12742 89.79035 35888 ft 487 kts 294°
2026-04-25 20:10 9.15403 89.72729 35887 ft 487 kts 294°
2026-04-25 20:11 9.18062 89.66425 35888 ft 487 kts 294°
2026-04-25 20:11 9.20719 89.60120 35889 ft 487 kts 294°
2026-04-25 20:12 9.23376 89.53814 35887 ft 487 kts 294°
2026-04-25 20:12 9.25581 89.48578 35888 ft 487 kts 294°
2026-04-25 20:13 9.28685 89.41202 35887 ft 487 kts 294°
2026-04-25 20:13 9.31337 89.34898 35887 ft 487 kts 294°
2026-04-25 20:14 9.33989 89.28588 35887 ft 487 kts 294°
2026-04-25 20:14 9.36640 89.22274 35888 ft 487 kts 294°
2026-04-25 20:15 9.39290 89.15963 35888 ft 487 kts 294°
2026-04-25 20:15 9.41940 89.09646 35888 ft 487 kts 294°
2026-04-25 20:16 9.44586 89.03337 35888 ft 487 kts 293°
2026-04-25 20:16 9.47232 88.97024 35888 ft 487 kts 293°
2026-04-25 20:17 9.49875 88.90714 35887 ft 487 kts 293°
2026-04-25 20:17 9.52518 88.84400 35887 ft 487 kts 293°
2026-04-25 20:18 9.55160 88.78086 35887 ft 487 kts 293°
2026-04-25 20:18 9.57800 88.71775 35888 ft 487 kts 293°
2026-04-25 20:19 9.60440 88.65457 35889 ft 487 kts 293°
2026-04-25 20:19 9.63081 88.59134 35889 ft 487 kts 293°
2026-04-25 20:20 9.65716 88.52819 35888 ft 486 kts 293°
2026-04-25 20:20 9.68347 88.46513 35888 ft 486 kts 293°
2026-04-25 20:21 9.70979 88.40198 35887 ft 486 kts 293°
2026-04-25 20:21 9.73612 88.33880 35889 ft 486 kts 293°
2026-04-25 20:22 9.75352 88.29699 35887 ft 487 kts 293°
2026-04-25 20:22 9.78853 88.21287 35887 ft 486 kts 293°
2026-04-25 20:23 9.81477 88.14979 35889 ft 485 kts 293°
2026-04-25 20:23 9.84116 88.08630 35887 ft 486 kts 293°
2026-04-25 20:24 9.86719 88.02364 35887 ft 486 kts 293°
2026-04-25 20:24 9.89341 87.96049 35882 ft 486 kts 292°
2026-04-25 20:25 9.91960 87.89737 35879 ft 486 kts 292°
2026-04-25 20:25 9.94578 87.83420 35880 ft 486 kts 292°
2026-04-25 20:26 9.97195 87.77105 35875 ft 486 kts 292°
2026-04-25 20:26 9.99809 87.70795 35881 ft 486 kts 292°
2026-04-25 20:27 10.02423 87.64479 35881 ft 485 kts 292°
2026-04-25 20:27 10.05037 87.58160 35881 ft 485 kts 292°
2026-04-25 20:28 10.07647 87.51842 35880 ft 485 kts 292°
2026-04-25 20:28 10.10255 87.45528 35880 ft 485 kts 292°
2026-04-25 20:29 10.12863 87.39212 35881 ft 485 kts 292°
2026-04-25 20:29 10.15470 87.32895 35882 ft 486 kts 292°
2026-04-25 20:30 10.18077 87.26571 35880 ft 485 kts 292°
2026-04-25 20:30 10.20682 87.20247 35880 ft 485 kts 292°
2026-04-25 20:31 10.23285 87.13925 35881 ft 485 kts 292°
2026-04-25 20:31 10.25888 87.07603 35880 ft 485 kts 292°
2026-04-25 20:32 10.28487 87.01281 35877 ft 485 kts 292°
2026-04-25 20:32 10.31083 86.94961 35865 ft 485 kts 292°
2026-04-25 20:33 10.33680 86.88638 35880 ft 485 kts 292°
2026-04-25 20:33 10.35399 86.84448 35881 ft 485 kts 292°
2026-04-25 20:34 10.38870 86.75989 35879 ft 485 kts 292°
2026-04-25 20:34 10.41461 86.69670 35871 ft 485 kts 292°
2026-04-25 20:35 10.44052 86.63344 35873 ft 485 kts 292°
2026-04-25 20:35 10.46630 86.57048 35880 ft 486 kts 292°
2026-04-25 20:36 10.49239 86.50671 35880 ft 486 kts 292°
2026-04-25 20:36 10.51833 86.44329 35879 ft 486 kts 292°
2026-04-25 20:37 10.54425 86.37986 35865 ft 486 kts 292°
2026-04-25 20:37 10.56999 86.31683 35860 ft 486 kts 292°
2026-04-25 20:38 10.59603 86.25301 35867 ft 486 kts 292°
2026-04-25 20:38 10.62190 86.18956 35872 ft 486 kts 292°
2026-04-25 20:39 10.64758 86.12655 35866 ft 486 kts 292°
2026-04-25 20:39 10.66486 86.08412 35864 ft 486 kts 292°
2026-04-25 20:40 10.69506 86.00994 35869 ft 486 kts 292°
2026-04-25 20:40 10.72088 85.94645 35860 ft 486 kts 292°
2026-04-25 20:41 10.74669 85.88297 35875 ft 486 kts 291°
2026-04-25 20:41 10.77230 85.81991 35864 ft 485 kts 291°
2026-04-25 20:42 10.79804 85.75648 35863 ft 485 kts 291°
2026-04-25 20:42 10.82376 85.69304 35880 ft 485 kts 291°
2026-04-25 20:43 10.84946 85.62963 35865 ft 485 kts 291°
2026-04-25 20:43 10.87513 85.56629 35871 ft 484 kts 291°
2026-04-25 20:44 10.90081 85.50292 35867 ft 484 kts 291°
2026-04-25 20:44 10.92647 85.43956 35859 ft 484 kts 291°
2026-04-25 20:45 10.95207 85.37619 35860 ft 484 kts 291°
2026-04-25 20:45 10.97769 85.31277 35862 ft 485 kts 291°
2026-04-25 20:46 11.00328 85.24936 35859 ft 484 kts 291°
2026-04-25 20:46 11.02885 85.18599 35854 ft 484 kts 291°
2026-04-25 20:47 11.05443 85.12255 35857 ft 484 kts 291°
2026-04-25 20:47 11.07997 85.05917 35862 ft 484 kts 291°
2026-04-25 20:48 11.10551 84.99574 35865 ft 484 kts 291°
2026-04-25 20:48 11.13105 84.93224 35861 ft 484 kts 291°
2026-04-25 20:49 11.15657 84.86877 35863 ft 484 kts 291°
2026-04-25 20:49 11.18204 84.80536 35855 ft 484 kts 291°
2026-04-25 20:50 11.20752 84.74191 35842 ft 484 kts 291°
2026-04-25 20:50 11.23297 84.67848 35845 ft 484 kts 291°
2026-04-25 20:51 11.25841 84.61503 35847 ft 484 kts 291°
2026-04-25 20:51 11.28385 84.55154 35844 ft 484 kts 291°
2026-04-25 20:52 11.30498 84.49878 35842 ft 484 kts 291°
2026-04-25 20:52 11.33449 84.42502 35842 ft 484 kts 290°
2026-04-25 20:53 11.35986 84.36156 35839 ft 483 kts 290°
2026-04-25 20:53 11.38518 84.29817 35843 ft 483 kts 290°
2026-04-25 20:54 11.41051 84.23475 35842 ft 483 kts 290°
2026-04-25 20:54 11.43582 84.17136 35838 ft 483 kts 290°
2026-04-25 20:55 11.46109 84.10797 35843 ft 483 kts 290°
2026-04-25 20:55 11.48633 84.04456 35845 ft 483 kts 290°
2026-04-25 20:56 11.51158 83.98115 35837 ft 483 kts 290°
2026-04-25 20:56 11.53681 83.91772 35841 ft 482 kts 290°
2026-04-25 20:57 11.56201 83.85433 35840 ft 482 kts 290°
2026-04-25 20:57 11.58719 83.79096 35836 ft 482 kts 290°
2026-04-25 20:58 11.61236 83.72755 35823 ft 482 kts 290°
2026-04-25 20:58 11.63753 83.66409 35823 ft 482 kts 290°
2026-04-25 20:59 11.66266 83.60070 35824 ft 483 kts 290°
2026-04-25 20:59 11.68781 83.53716 35822 ft 482 kts 290°
2026-04-25 21:00 11.70461 83.49472 35823 ft 482 kts 290°
2026-04-25 21:01 11.75055 83.37857 35822 ft 482 kts 290°
2026-04-25 21:01 11.77555 83.31504 35824 ft 482 kts 290°
2026-04-25 21:02 11.80035 83.25156 35822 ft 481 kts 290°
2026-04-25 21:02 11.82511 83.18807 35827 ft 481 kts 290°
2026-04-25 21:03 11.84986 83.12463 35833 ft 481 kts 290°
2026-04-25 21:03 11.87461 83.06113 35831 ft 481 kts 290°
2026-04-25 21:04 11.89937 82.99758 35831 ft 482 kts 290°
2026-04-25 21:04 11.92414 82.93408 35833 ft 481 kts 290°
2026-04-25 21:05 11.94883 82.87061 35831 ft 481 kts 290°
2026-04-25 21:05 11.97353 82.80709 35831 ft 481 kts 290°
2026-04-25 21:06 11.99823 82.74353 35833 ft 481 kts 290°
2026-04-25 21:06 12.02290 82.67999 35833 ft 481 kts 290°
2026-04-25 21:07 12.04747 82.61662 35834 ft 479 kts 290°
2026-04-25 21:07 12.07200 82.55333 35829 ft 479 kts 290°
2026-04-25 21:08 12.09654 82.48999 35834 ft 480 kts 290°
2026-04-25 21:08 12.12110 82.42659 35833 ft 480 kts 290°
2026-04-25 21:09 12.15792 82.33137 35831 ft 480 kts 290°
2026-04-25 21:09 12.18242 82.26794 35833 ft 480 kts 290°
2026-04-25 21:10 12.20694 82.20443 35833 ft 480 kts 290°
2026-04-25 21:10 12.23129 82.14134 35821 ft 480 kts 290°
2026-04-25 21:11 12.25578 82.07780 35813 ft 480 kts 290°
2026-04-25 21:11 12.28024 82.01428 35814 ft 480 kts 290°
2026-04-25 21:12 12.30470 81.95071 35813 ft 480 kts 289°
2026-04-25 21:12 12.32503 81.89784 35813 ft 480 kts 289°
2026-04-25 21:13 12.35358 81.82353 35814 ft 480 kts 289°
2026-04-25 21:13 12.37796 81.76003 35804 ft 480 kts 289°
2026-04-25 21:14 12.40233 81.69650 35803 ft 480 kts 289°
2026-04-25 21:14 12.42669 81.63297 35805 ft 479 kts 289°
2026-04-25 21:15 12.45100 81.56947 35803 ft 479 kts 289°
2026-04-25 21:15 12.47527 81.50606 35804 ft 479 kts 289°
2026-04-25 21:16 12.49952 81.44267 35803 ft 478 kts 289°
2026-04-25 21:16 12.52373 81.37929 35803 ft 478 kts 289°
2026-04-25 21:17 12.54792 81.31593 35805 ft 477 kts 289°
2026-04-25 21:17 12.57208 81.25263 35803 ft 477 kts 289°
2026-04-25 21:18 12.59620 81.18936 35805 ft 477 kts 289°
2026-04-25 21:18 12.62028 81.12615 35804 ft 477 kts 289°
2026-04-25 21:19 12.64434 81.06290 35805 ft 476 kts 289°
2026-04-25 21:19 12.66821 81.00014 35804 ft 476 kts 289°
2026-04-25 21:20 12.68426 80.95788 35803 ft 476 kts 289°
2026-04-25 21:20 12.71618 80.87382 35804 ft 476 kts 289°
2026-04-25 21:21 12.74015 80.81065 35806 ft 475 kts 289°
2026-04-25 21:21 12.76407 80.74755 35803 ft 475 kts 289°
2026-04-25 21:22 12.78799 80.68441 35803 ft 475 kts 289°
2026-04-25 21:22 12.81187 80.62131 35804 ft 475 kts 289°
2026-04-25 21:23 12.83574 80.55818 35802 ft 475 kts 289°
2026-04-25 21:23 12.85959 80.49506 35804 ft 475 kts 289°
2026-04-25 21:24 12.88340 80.43196 35804 ft 475 kts 289°
2026-04-25 21:24 12.90720 80.36885 35804 ft 475 kts 288°
2026-04-25 21:25 12.93098 80.30575 35803 ft 475 kts 288°
2026-04-25 21:25 12.95475 80.24266 35802 ft 474 kts 288°
2026-04-25 21:26 12.97448 80.19021 35804 ft 474 kts 288°
2026-04-25 21:26 12.99471 80.12605 35804 ft 472 kts 283°
2026-04-25 21:27 13.01150 80.06110 35803 ft 471 kts 282°
2026-04-25 21:27 13.02767 79.99601 35803 ft 471 kts 281°
2026-04-25 21:28 13.04378 79.93094 35803 ft 470 kts 281°
2026-04-25 21:28 13.05992 79.86602 35806 ft 470 kts 281°
2026-04-25 21:29 13.07610 79.80112 35813 ft 469 kts 281°
2026-04-25 21:29 13.09226 79.73621 35813 ft 470 kts 281°
2026-04-25 21:30 13.10839 79.67132 35821 ft 470 kts 281°
2026-04-25 21:30 13.12179 79.61737 35822 ft 469 kts 281°
2026-04-25 21:31 13.14061 79.54153 35833 ft 469 kts 281°
2026-04-25 21:31 13.15667 79.47675 35838 ft 469 kts 281°
2026-04-25 21:32 13.17259 79.41237 35843 ft 469 kts 281°
2026-04-25 21:32 13.18860 79.34764 35854 ft 469 kts 281°
2026-04-25 21:33 13.20464 79.28272 35873 ft 469 kts 281°
2026-04-25 21:33 13.22063 79.21788 35860 ft 469 kts 281°
2026-04-25 21:34 13.23659 79.15309 35857 ft 468 kts 281°
2026-04-25 21:34 13.25253 79.08833 35870 ft 468 kts 281°
2026-04-25 21:35 13.26845 79.02356 35880 ft 468 kts 281°
2026-04-25 21:35 13.28435 78.95877 35888 ft 468 kts 281°
2026-04-25 21:36 13.29170 78.89322 35899 ft 460 kts 266°
2026-04-25 21:36 13.28903 78.82761 35905 ft 459 kts 263°
2026-04-25 21:37 13.28520 78.77334 35916 ft 459 kts 263°
2026-04-25 21:37 13.27956 78.69706 35925 ft 458 kts 263°
2026-04-25 21:38 13.27494 78.63175 35934 ft 459 kts 263°
2026-04-25 21:38 13.27045 78.56641 35943 ft 459 kts 263°
2026-04-25 21:39 13.26598 78.50113 35952 ft 458 kts 263°
2026-04-25 21:39 13.26149 78.43594 35956 ft 458 kts 263°
2026-04-25 21:40 13.25701 78.37115 35962 ft 458 kts 263°
2026-04-25 21:40 13.25247 78.30598 35968 ft 458 kts 263°
2026-04-25 21:41 13.24792 78.24088 35976 ft 458 kts 263°
2026-04-25 21:41 13.24335 78.17573 35980 ft 458 kts 263°
2026-04-25 21:42 13.23878 78.11059 35980 ft 458 kts 263°
2026-04-25 21:42 13.23419 78.04549 35986 ft 457 kts 263°
2026-04-25 21:43 13.22958 77.98037 35985 ft 458 kts 263°
2026-04-25 21:43 13.22495 77.91529 35986 ft 456 kts 263°
2026-04-25 21:44 13.22032 77.85035 35985 ft 456 kts 263°
2026-04-25 21:45 13.21336 77.75341 35988 ft 456 kts 263°
2026-04-25 21:45 13.21669 77.68824 35985 ft 463 kts 278°
2026-04-25 21:46 13.23723 77.62515 35993 ft 469 kts 288°
2026-04-25 21:46 13.26264 77.56347 35995 ft 470 kts 289°
2026-04-25 21:47 13.28880 77.50195 35993 ft 470 kts 289°
2026-04-25 21:47 13.31469 77.44032 35995 ft 470 kts 289°
2026-04-25 21:48 13.34031 77.37862 35995 ft 470 kts 289°
2026-04-25 21:48 13.36582 77.31691 35990 ft 469 kts 289°
2026-04-25 21:49 13.39131 77.25518 35981 ft 469 kts 289°
2026-04-25 21:49 13.41680 77.19343 35981 ft 470 kts 289°
2026-04-25 21:50 13.44227 77.13169 35980 ft 469 kts 289°
2026-04-25 21:50 13.46773 77.06993 35972 ft 469 kts 289°
2026-04-25 21:51 13.49319 77.00813 35971 ft 470 kts 289°
2026-04-25 21:51 13.51863 76.94633 35970 ft 469 kts 289°
2026-04-25 21:52 13.54403 76.88460 35962 ft 469 kts 289°
2026-04-25 21:52 13.56925 76.82328 35957 ft 469 kts 289°
2026-04-25 21:53 13.59474 76.76118 35953 ft 469 kts 288°
2026-04-25 21:53 13.61964 76.69980 35944 ft 468 kts 288°
2026-04-25 21:54 13.64456 76.63791 35943 ft 468 kts 288°
2026-04-25 21:54 13.66941 76.57614 35935 ft 468 kts 288°
2026-04-25 21:55 13.69426 76.51437 35924 ft 468 kts 288°
2026-04-25 21:55 13.71914 76.45255 35923 ft 468 kts 288°
2026-04-25 21:56 13.74400 76.39073 35915 ft 467 kts 288°
2026-04-25 21:56 13.76882 76.32897 35911 ft 467 kts 288°
2026-04-25 21:57 13.79361 76.26723 35907 ft 467 kts 288°
2026-04-25 21:57 13.81837 76.20547 35897 ft 467 kts 288°
2026-04-25 21:58 13.84310 76.14377 35896 ft 467 kts 288°
2026-04-25 21:58 13.86784 76.08199 35888 ft 466 kts 288°
2026-04-25 21:59 13.89252 76.02030 35888 ft 466 kts 288°
2026-04-25 21:59 13.91719 75.95857 35881 ft 466 kts 288°
2026-04-25 22:00 13.95404 75.86632 35870 ft 466 kts 288°
2026-04-25 22:00 13.97868 75.80455 35863 ft 467 kts 288°
2026-04-25 22:01 14.00329 75.74276 35869 ft 466 kts 288°
2026-04-25 22:01 14.02375 75.69140 35873 ft 467 kts 288°
2026-04-25 22:02 14.05253 75.61914 35859 ft 466 kts 288°
2026-04-25 22:02 14.07709 75.55735 35860 ft 466 kts 288°
2026-04-25 22:03 14.10582 75.49708 35852 ft 469 kts 292°
2026-04-25 22:03 14.13648 75.43762 35827 ft 470 kts 293°
2026-04-25 22:04 14.16749 75.37829 35823 ft 470 kts 293°
2026-04-25 22:04 14.19842 75.31901 35822 ft 470 kts 293°
2026-04-25 22:05 14.22928 75.25964 35823 ft 470 kts 293°
2026-04-25 22:05 14.26012 75.20019 35823 ft 470 kts 293°
2026-04-25 22:06 14.29088 75.14086 35822 ft 469 kts 293°
2026-04-25 22:06 14.32139 75.08192 35823 ft 469 kts 293°
2026-04-25 22:07 14.34712 75.03226 35823 ft 469 kts 293°
2026-04-25 22:07 14.38278 74.96334 35823 ft 469 kts 293°
2026-04-25 22:08 14.41346 74.90401 35824 ft 468 kts 293°
2026-04-25 22:08 14.44410 74.84472 35823 ft 468 kts 293°
2026-04-25 22:09 14.47475 74.78535 35823 ft 468 kts 293°
2026-04-25 22:09 14.50564 74.72615 35814 ft 469 kts 294°
2026-04-25 22:10 14.53695 74.66708 35812 ft 469 kts 294°
2026-04-25 22:10 14.56828 74.60806 35813 ft 469 kts 294°
2026-04-25 22:11 14.59955 74.54900 35822 ft 469 kts 294°
2026-04-25 22:11 14.63077 74.48992 35822 ft 469 kts 294°
2026-04-25 22:12 14.66196 74.43079 35814 ft 469 kts 294°
2026-04-25 22:12 14.68281 74.39124 35812 ft 469 kts 294°
2026-04-25 22:13 14.72429 74.31254 35814 ft 469 kts 293°
2026-04-25 22:13 14.75541 74.25343 35815 ft 469 kts 293°
2026-04-25 22:14 14.78653 74.19427 35813 ft 468 kts 293°
2026-04-25 22:14 14.81764 74.13510 35811 ft 468 kts 293°
2026-04-25 22:15 14.84873 74.07593 35803 ft 468 kts 293°
2026-04-25 22:16 14.89004 73.99723 35803 ft 468 kts 293°
2026-04-25 22:16 14.92614 73.92840 35803 ft 469 kts 293°
2026-04-25 22:17 14.95219 73.87874 35803 ft 469 kts 293°
2026-04-25 22:17 14.98833 73.80979 35809 ft 469 kts 293°
2026-04-25 22:18 15.01434 73.76008 35803 ft 469 kts 293°
2026-04-25 22:18 15.04537 73.70071 35804 ft 469 kts 293°
2026-04-25 22:19 15.07635 73.64134 35803 ft 469 kts 292°
2026-04-25 22:19 15.10725 73.58205 35803 ft 468 kts 292°
2026-04-25 22:20 15.13817 73.52267 35804 ft 469 kts 292°
2026-04-25 22:20 15.16907 73.46326 35803 ft 469 kts 292°
2026-04-25 22:21 15.19997 73.40387 35803 ft 469 kts 292°
2026-04-25 22:21 15.23065 73.34484 35804 ft 469 kts 292°
2026-04-25 22:22 15.26153 73.28537 35803 ft 469 kts 292°
2026-04-25 22:22 15.29238 73.22591 35803 ft 469 kts 292°
2026-04-25 22:23 15.32321 73.16645 35803 ft 469 kts 292°
2026-04-25 22:23 15.35406 73.10689 35807 ft 469 kts 292°
2026-04-25 22:24 15.38490 73.04731 35803 ft 469 kts 292°
2026-04-25 22:24 15.41569 72.98780 35813 ft 468 kts 292°
2026-04-25 22:25 15.44642 72.92832 35813 ft 468 kts 292°
2026-04-25 22:25 15.47711 72.86886 35813 ft 468 kts 292°
2026-04-25 22:26 15.50777 72.80944 35813 ft 468 kts 292°
2026-04-25 22:26 15.53844 72.74995 35814 ft 468 kts 292°
2026-04-25 22:27 15.56907 72.69047 35813 ft 467 kts 292°
2026-04-25 22:27 15.59970 72.63094 35814 ft 468 kts 292°
2026-04-25 22:28 15.63033 72.57139 35814 ft 468 kts 292°
2026-04-25 22:28 15.66093 72.51185 35813 ft 467 kts 292°
2026-04-25 22:29 15.69146 72.45239 35813 ft 467 kts 292°
2026-04-25 22:29 15.72201 72.39283 35813 ft 467 kts 292°
2026-04-25 22:30 15.76782 72.30342 35818 ft 467 kts 291°
2026-04-25 22:30 15.79316 72.25391 35822 ft 467 kts 291°
2026-04-25 22:31 15.82873 72.18437 35823 ft 466 kts 291°
2026-04-25 22:31 15.85912 72.12493 35822 ft 466 kts 291°
2026-04-25 22:32 15.88949 72.06543 35822 ft 466 kts 291°
2026-04-25 22:32 15.91984 72.00594 35823 ft 466 kts 291°
2026-04-25 22:33 15.95021 71.94638 35824 ft 466 kts 291°
2026-04-25 22:33 15.98051 71.88689 35824 ft 466 kts 291°
2026-04-25 22:34 16.01081 71.82735 35823 ft 466 kts 291°
2026-04-25 22:34 16.04110 71.76776 35822 ft 466 kts 291°
2026-04-25 22:35 16.07133 71.70826 35822 ft 466 kts 291°
2026-04-25 22:35 16.10161 71.64868 35822 ft 466 kts 291°
2026-04-25 22:36 16.13242 71.58935 35822 ft 466 kts 292°
2026-04-25 22:36 16.16348 71.53015 35822 ft 466 kts 292°
2026-04-25 22:37 16.19448 71.47102 35824 ft 465 kts 292°
2026-04-25 22:37 16.22538 71.41189 35823 ft 465 kts 292°
2026-04-25 22:38 16.25623 71.35274 35823 ft 465 kts 292°
2026-04-25 22:38 16.28706 71.29358 35822 ft 465 kts 292°
2026-04-25 22:39 16.31786 71.23443 35823 ft 464 kts 292°
2026-04-25 22:39 16.34861 71.17534 35822 ft 464 kts 292°
2026-04-25 22:40 16.37931 71.11628 35823 ft 464 kts 292°
2026-04-25 22:40 16.40998 71.05724 35822 ft 464 kts 292°
2026-04-25 22:41 16.44064 70.99815 35815 ft 464 kts 292°
2026-04-25 22:41 16.47130 70.93904 35813 ft 463 kts 292°
2026-04-25 22:42 16.50190 70.87997 35813 ft 463 kts 292°
2026-04-25 22:42 16.53232 70.82127 35814 ft 463 kts 292°
2026-04-25 22:43 16.56319 70.76228 35814 ft 464 kts 292°
2026-04-25 22:43 16.59432 70.70293 35813 ft 464 kts 292°
2026-04-25 22:44 16.62524 70.64392 35813 ft 464 kts 292°
2026-04-25 22:44 16.65591 70.58528 35814 ft 464 kts 292°
2026-04-25 22:45 16.68674 70.52624 35813 ft 463 kts 292°
2026-04-25 22:45 16.71753 70.46722 35814 ft 463 kts 292°
2026-04-25 22:46 16.74832 70.40815 35813 ft 463 kts 292°
2026-04-25 22:46 16.77909 70.34908 35814 ft 463 kts 292°
2026-04-25 22:47 16.80979 70.29012 35814 ft 462 kts 292°
2026-04-25 22:47 16.84043 70.23119 35814 ft 462 kts 292°
2026-04-25 22:48 16.87109 70.17218 35814 ft 462 kts 292°
2026-04-25 22:48 16.90167 70.11321 35814 ft 462 kts 292°
2026-04-25 22:49 16.93230 70.05416 35813 ft 462 kts 292°
2026-04-25 22:49 16.96289 69.99516 35813 ft 462 kts 292°
2026-04-25 22:50 16.99349 69.93607 35813 ft 463 kts 292°
2026-04-25 22:50 17.02410 69.87691 35813 ft 463 kts 292°
2026-04-25 22:51 17.05470 69.81770 35814 ft 463 kts 292°
2026-04-25 22:51 17.08528 69.75845 35813 ft 463 kts 292°
2026-04-25 22:52 17.11583 69.69923 35813 ft 463 kts 292°
2026-04-25 22:52 17.14123 69.64995 35813 ft 463 kts 292°
2026-04-25 22:53 17.17691 69.58069 35814 ft 463 kts 292°
2026-04-25 22:53 17.20751 69.52138 35814 ft 463 kts 292°
2026-04-25 22:54 17.23824 69.46212 35814 ft 463 kts 292°
2026-04-25 22:54 17.26897 69.40287 35813 ft 464 kts 292°
2026-04-25 22:55 17.29968 69.34354 35814 ft 464 kts 292°
2026-04-25 22:55 17.33020 69.28457 35813 ft 464 kts 292°
2026-04-25 22:56 17.36088 69.22517 35814 ft 464 kts 292°
2026-04-25 22:56 17.39155 69.16576 35813 ft 464 kts 292°
2026-04-25 22:57 17.42223 69.10627 35813 ft 464 kts 292°
2026-04-25 22:57 17.45291 69.04673 35813 ft 464 kts 292°
2026-04-25 22:58 17.48356 68.98718 35814 ft 465 kts 292°
2026-04-25 22:58 17.51423 68.92755 35813 ft 465 kts 292°
2026-04-25 22:59 17.54488 68.86789 35813 ft 465 kts 292°
2026-04-25 22:59 17.57550 68.80825 35814 ft 465 kts 292°
2026-04-25 23:00 17.60614 68.74851 35813 ft 465 kts 292°
2026-04-25 23:00 17.63680 68.68870 35813 ft 466 kts 293°
2026-04-25 23:01 17.66745 68.62882 35813 ft 467 kts 293°
2026-04-25 23:01 17.69293 68.57897 35813 ft 467 kts 293°
2026-04-25 23:02 17.72363 68.51890 35814 ft 467 kts 293°
2026-04-25 23:02 17.75430 68.45886 35814 ft 467 kts 293°
2026-04-25 23:03 17.78492 68.39885 35813 ft 467 kts 293°
2026-04-25 23:03 17.81554 68.33877 35813 ft 467 kts 293°
2026-04-25 23:04 17.84616 68.27861 35813 ft 467 kts 293°
2026-04-25 23:04 17.87674 68.21849 35813 ft 467 kts 293°
2026-04-25 23:05 17.90734 68.15830 35814 ft 468 kts 293°
2026-04-25 23:05 17.93791 68.09803 35813 ft 468 kts 293°
2026-04-25 23:06 17.96852 68.03772 35813 ft 467 kts 293°
2026-04-25 23:06 17.99906 67.97752 35814 ft 467 kts 293°
2026-04-25 23:07 18.02954 67.91721 35813 ft 467 kts 293°
2026-04-25 23:07 18.06003 67.85684 35813 ft 468 kts 293°
2026-04-25 23:08 18.09085 67.79661 35814 ft 469 kts 294°
2026-04-25 23:08 18.12237 67.73658 35813 ft 469 kts 294°
2026-04-25 23:09 18.15403 67.67652 35813 ft 469 kts 295°
2026-04-25 23:09 18.18554 67.61648 35813 ft 469 kts 295°
2026-04-25 23:10 18.21696 67.55640 35815 ft 469 kts 295°
2026-04-25 23:10 18.24841 67.49621 35812 ft 470 kts 295°
2026-04-25 23:11 18.27985 67.43596 35817 ft 470 kts 295°
2026-04-25 23:11 18.31131 67.37566 35840 ft 470 kts 295°
2026-04-25 23:12 18.34278 67.31530 35841 ft 471 kts 296°
2026-04-25 23:12 18.37431 67.25477 35842 ft 471 kts 296°
2026-04-25 23:13 18.40579 67.19424 35846 ft 472 kts 296°
2026-04-25 23:13 18.43726 67.13366 35840 ft 472 kts 296°
2026-04-25 23:14 18.46878 67.07293 35849 ft 472 kts 297°
2026-04-25 23:14 18.50029 67.01217 35864 ft 473 kts 297°
2026-04-25 23:15 18.53182 66.95133 35860 ft 473 kts 297°
2026-04-25 23:15 18.56333 66.89046 35862 ft 473 kts 297°
2026-04-25 23:16 18.59481 66.82955 35854 ft 474 kts 297°
2026-04-25 23:16 18.62631 66.76856 35857 ft 474 kts 297°
2026-04-25 23:17 18.65760 66.70794 35866 ft 474 kts 298°
2026-04-25 23:17 18.68904 66.64693 35864 ft 474 kts 298°
2026-04-25 23:18 18.72055 66.58578 35856 ft 474 kts 298°
2026-04-25 23:18 18.75203 66.52463 35869 ft 474 kts 298°
2026-04-25 23:19 18.78346 66.46346 35854 ft 474 kts 298°
2026-04-25 23:19 18.81491 66.40221 35864 ft 475 kts 298°
2026-04-25 23:20 18.84634 66.34094 35866 ft 474 kts 298°
2026-04-25 23:20 18.87775 66.27964 35863 ft 475 kts 298°
2026-04-25 23:21 18.90913 66.21834 35859 ft 475 kts 298°
2026-04-25 23:21 18.94050 66.15701 35860 ft 475 kts 298°
2026-04-25 23:22 18.97205 66.09523 35857 ft 475 kts 298°
2026-04-25 23:23 19.01884 66.00354 35846 ft 475 kts 298°
2026-04-25 23:23 19.05012 65.94215 35843 ft 474 kts 299°
2026-04-25 23:24 19.08132 65.88079 35839 ft 474 kts 299°
2026-04-25 23:24 19.11259 65.81933 35840 ft 475 kts 299°
2026-04-25 23:25 19.14388 65.75779 35842 ft 475 kts 299°
2026-04-25 23:25 19.17509 65.69631 35838 ft 475 kts 299°
2026-04-25 23:26 19.20629 65.63475 35837 ft 474 kts 299°
2026-04-25 23:26 19.23746 65.57321 35838 ft 474 kts 299°
2026-04-25 23:27 19.26863 65.51160 35837 ft 475 kts 299°
2026-04-25 23:27 19.29977 65.44998 35833 ft 475 kts 299°
2026-04-25 23:28 19.33086 65.38838 35830 ft 475 kts 299°
2026-04-25 23:28 19.36195 65.32674 35833 ft 475 kts 299°
2026-04-25 23:29 19.39304 65.26506 35834 ft 474 kts 299°
2026-04-25 23:29 19.42408 65.20338 35832 ft 474 kts 299°
2026-04-25 23:30 19.45508 65.14169 35833 ft 474 kts 299°
2026-04-25 23:30 19.48606 65.08001 35833 ft 474 kts 299°
2026-04-25 23:31 19.51705 65.01824 35830 ft 474 kts 299°
2026-04-25 23:31 19.54834 64.95668 35833 ft 474 kts 300°
2026-04-25 23:32 19.58002 64.89533 35831 ft 474 kts 300°
2026-04-25 23:32 19.61169 64.83398 35833 ft 474 kts 300°
2026-04-25 23:33 19.64328 64.77261 35838 ft 474 kts 300°
2026-04-25 23:33 19.67484 64.71117 35834 ft 474 kts 300°
2026-04-25 23:34 19.70640 64.64971 35833 ft 474 kts 300°
2026-04-25 23:34 19.73786 64.58829 35830 ft 474 kts 300°
2026-04-25 23:35 19.76932 64.52681 35831 ft 474 kts 300°
2026-04-25 23:35 19.80076 64.46535 35832 ft 474 kts 300°
2026-04-25 23:36 19.83222 64.40380 35833 ft 474 kts 300°
2026-04-25 23:36 19.86360 64.34226 35833 ft 474 kts 300°
2026-04-25 23:37 19.89476 64.28111 35833 ft 474 kts 300°
2026-04-25 23:37 19.92610 64.21953 35831 ft 474 kts 300°
2026-04-25 23:38 19.95743 64.15797 35830 ft 473 kts 300°
2026-04-25 23:38 19.98873 64.09639 35831 ft 473 kts 300°
2026-04-25 23:39 20.02022 64.03437 35834 ft 474 kts 300°
2026-04-25 23:39 20.05127 63.97315 35834 ft 473 kts 300°
2026-04-25 23:40 20.08248 63.91149 35829 ft 474 kts 300°
2026-04-25 23:40 20.11390 63.84937 35833 ft 473 kts 300°
2026-04-25 23:41 20.14487 63.78808 35832 ft 473 kts 300°
2026-04-25 23:41 20.17604 63.72638 35830 ft 473 kts 300°
2026-04-25 23:42 20.20737 63.66425 35830 ft 473 kts 300°
2026-04-25 23:42 20.23848 63.60251 35828 ft 473 kts 300°
2026-04-25 23:43 20.26928 63.54127 35831 ft 472 kts 300°
2026-04-25 23:43 20.30031 63.47953 35833 ft 472 kts 300°
2026-04-25 23:44 20.33125 63.41790 35831 ft 472 kts 300°
2026-04-25 23:44 20.36216 63.35628 35830 ft 471 kts 300°
2026-04-25 23:45 20.39303 63.29466 35832 ft 471 kts 300°
2026-04-25 23:45 20.41867 63.24343 35831 ft 471 kts 300°
2026-04-25 23:46 20.44947 63.18183 35832 ft 470 kts 300°
2026-04-25 23:46 20.48022 63.12028 35830 ft 470 kts 300°
2026-04-25 23:47 20.51091 63.05878 35837 ft 470 kts 300°
2026-04-25 23:47 20.54156 62.99726 35840 ft 469 kts 300°
2026-04-25 23:48 20.57218 62.93573 35842 ft 469 kts 300°
2026-04-25 23:48 20.60274 62.87422 35841 ft 469 kts 300°
2026-04-25 23:49 20.63328 62.81276 35843 ft 469 kts 300°
2026-04-25 23:49 20.66380 62.75128 35842 ft 468 kts 299°
2026-04-25 23:50 20.69427 62.68981 35843 ft 468 kts 299°
2026-04-25 23:50 20.72470 62.62831 35841 ft 468 kts 299°
2026-04-25 23:51 20.75511 62.56677 35840 ft 468 kts 299°
2026-04-25 23:51 20.78549 62.50528 35840 ft 468 kts 299°
2026-04-25 23:52 20.81586 62.44373 35841 ft 468 kts 299°
2026-04-25 23:52 20.84614 62.38227 35846 ft 467 kts 299°
2026-04-25 23:53 20.87644 62.32072 35842 ft 467 kts 299°
2026-04-25 23:53 20.90668 62.25921 35842 ft 467 kts 299°
2026-04-25 23:54 20.93687 62.19774 35842 ft 467 kts 299°
2026-04-25 23:54 20.96705 62.13624 35845 ft 467 kts 299°
2026-04-25 23:55 20.99720 62.07469 35840 ft 467 kts 299°
2026-04-25 23:55 21.02732 62.01317 35840 ft 467 kts 299°
2026-04-25 23:56 21.05739 61.95166 35846 ft 466 kts 299°
2026-04-25 23:56 21.08736 61.89029 35838 ft 464 kts 299°
2026-04-25 23:57 21.11722 61.82909 35842 ft 464 kts 299°
2026-04-25 23:57 21.14707 61.76781 35846 ft 464 kts 299°
2026-04-25 23:58 21.17689 61.70650 35838 ft 464 kts 299°
2026-04-25 23:58 21.20214 61.64302 35843 ft 466 kts 286°
2026-04-25 23:59 21.21072 61.57407 35838 ft 469 kts 275°
2026-04-25 23:59 21.21318 61.50421 35838 ft 469 kts 273°
2026-04-26 00:00 21.21456 61.43423 35840 ft 470 kts 273°
2026-04-26 00:00 21.21610 61.36431 35846 ft 469 kts 273°
2026-04-26 00:01 21.21788 61.29435 35845 ft 469 kts 274°
2026-04-26 00:01 21.21973 61.22448 35845 ft 468 kts 274°
2026-04-26 00:02 21.22156 61.15489 35846 ft 467 kts 274°
2026-04-26 00:02 21.22334 61.08538 35856 ft 467 kts 274°
2026-04-26 00:03 21.22506 61.01633 35850 ft 466 kts 274°
2026-04-26 00:03 21.22676 60.94690 35847 ft 466 kts 274°
2026-04-26 00:04 21.22845 60.87751 35848 ft 466 kts 274°
2026-04-26 00:04 21.23012 60.80811 35847 ft 466 kts 274°
2026-04-26 00:05 21.23175 60.73875 35858 ft 466 kts 274°
2026-04-26 00:05 21.23335 60.66937 35850 ft 465 kts 274°
2026-04-26 00:06 21.23491 60.60008 35865 ft 465 kts 274°
2026-04-26 00:06 21.23645 60.53081 35865 ft 465 kts 274°
2026-04-26 00:07 21.23796 60.46151 35866 ft 465 kts 274°
2026-04-26 00:07 21.23943 60.39229 35862 ft 464 kts 274°
2026-04-26 00:08 21.24088 60.32314 35873 ft 464 kts 274°
2026-04-26 00:08 21.24231 60.25398 35863 ft 464 kts 274°
2026-04-26 00:09 21.24371 60.18482 35865 ft 464 kts 274°
2026-04-26 00:09 21.24506 60.11581 35877 ft 464 kts 274°
2026-04-26 00:10 21.24636 60.04671 35864 ft 463 kts 274°
2026-04-26 00:10 21.24765 59.97764 35880 ft 464 kts 274°
2026-04-26 00:11 21.24890 59.90866 35865 ft 462 kts 274°
2026-04-26 00:11 21.25012 59.83993 35868 ft 461 kts 274°
2026-04-26 00:12 21.25130 59.77174 35868 ft 460 kts 274°
2026-04-26 00:12 21.25248 59.70270 35875 ft 460 kts 274°
2026-04-26 00:13 21.25363 59.63404 35873 ft 461 kts 274°
2026-04-26 00:13 21.25474 59.56539 35865 ft 461 kts 274°
2026-04-26 00:14 21.25582 59.49718 35867 ft 461 kts 274°
2026-04-26 00:14 21.25687 59.42852 35870 ft 461 kts 274°
2026-04-26 00:15 21.25789 59.35989 35870 ft 461 kts 274°
2026-04-26 00:15 21.25891 59.29127 35868 ft 460 kts 274°
2026-04-26 00:16 21.25989 59.22276 35866 ft 460 kts 274°
2026-04-26 00:16 21.26081 59.15424 35866 ft 460 kts 274°
2026-04-26 00:17 21.26172 59.08568 35866 ft 460 kts 274°
2026-04-26 00:17 21.26261 59.01718 35876 ft 459 kts 274°
2026-04-26 00:18 21.26346 58.94877 35867 ft 458 kts 274°
2026-04-26 00:18 21.26428 58.88048 35862 ft 459 kts 274°
2026-04-26 00:19 21.26591 58.81220 35879 ft 456 kts 279°
2026-04-26 00:19 21.27899 58.74632 35879 ft 451 kts 288°
2026-04-26 00:20 21.29684 58.68194 35860 ft 451 kts 290°
2026-04-26 00:20 21.31548 58.61814 35870 ft 451 kts 290°
2026-04-26 00:21 21.33413 58.55396 35864 ft 451 kts 290°
2026-04-26 00:21 21.35256 58.48977 35863 ft 450 kts 289°
2026-04-26 00:22 21.37089 58.42560 35866 ft 449 kts 289°
2026-04-26 00:22 21.38915 58.36150 35870 ft 449 kts 289°
2026-04-26 00:23 21.40738 58.29737 35858 ft 449 kts 289°
2026-04-26 00:23 21.42557 58.23334 35857 ft 449 kts 289°
2026-04-26 00:24 21.44375 58.16925 35856 ft 448 kts 289°
2026-04-26 00:24 21.46190 58.10520 35850 ft 449 kts 289°
2026-04-26 00:25 21.48002 58.04112 35855 ft 449 kts 289°
2026-04-26 00:25 21.49812 57.97702 35849 ft 448 kts 289°
2026-04-26 00:26 21.51613 57.91307 35848 ft 447 kts 289°
2026-04-26 00:26 21.53411 57.84917 35846 ft 447 kts 289°
2026-04-26 00:27 21.55192 57.78575 35850 ft 446 kts 289°
2026-04-26 00:27 21.56984 57.72184 35859 ft 447 kts 289°
2026-04-26 00:28 21.58773 57.65798 35852 ft 447 kts 289°
2026-04-26 00:28 21.60559 57.59402 35851 ft 447 kts 289°
2026-04-26 00:29 21.62344 57.53003 35858 ft 447 kts 289°
2026-04-26 00:29 21.64123 57.46604 35850 ft 447 kts 289°
2026-04-26 00:30 21.65898 57.40212 35853 ft 446 kts 289°
2026-04-26 00:30 21.67670 57.33824 35845 ft 446 kts 289°
2026-04-26 00:31 21.69439 57.27433 35845 ft 446 kts 289°
2026-04-26 00:31 21.71204 57.21050 35852 ft 446 kts 289°
2026-04-26 00:32 21.72670 57.15743 35855 ft 445 kts 289°
2026-04-26 00:32 21.75587 57.05135 35851 ft 444 kts 289°
2026-04-26 00:33 21.77337 56.98758 35851 ft 445 kts 289°
2026-04-26 00:33 21.79086 56.92376 35849 ft 444 kts 288°
2026-04-26 00:34 21.80537 56.87074 35844 ft 444 kts 288°
2026-04-26 00:34 21.82276 56.80705 35853 ft 443 kts 288°
2026-04-26 00:35 21.84010 56.74348 35853 ft 443 kts 288°
2026-04-26 00:35 21.85742 56.67989 35858 ft 443 kts 288°
2026-04-26 00:36 21.87471 56.61635 35853 ft 442 kts 288°
2026-04-26 00:36 21.89196 56.55284 35880 ft 442 kts 288°
2026-04-26 00:37 21.90917 56.48941 35881 ft 441 kts 288°
2026-04-26 00:37 21.92631 56.42603 35880 ft 441 kts 288°
2026-04-26 00:38 21.94329 56.36312 35878 ft 440 kts 288°
2026-04-26 00:38 21.96036 56.29979 35879 ft 440 kts 288°
2026-04-26 00:39 21.97735 56.23655 35881 ft 439 kts 288°
2026-04-26 00:39 21.99430 56.17333 35880 ft 439 kts 288°
2026-04-26 00:40 22.01123 56.11012 35879 ft 439 kts 288°
2026-04-26 00:40 22.02815 56.04689 35874 ft 439 kts 288°
2026-04-26 00:41 22.04509 55.98372 35879 ft 439 kts 288°
2026-04-26 00:41 22.06193 55.92088 35880 ft 439 kts 288°
2026-04-26 00:42 22.07883 55.85765 35881 ft 439 kts 288°
2026-04-26 00:42 22.09571 55.79445 35880 ft 439 kts 288°
2026-04-26 00:43 22.11256 55.73121 35880 ft 439 kts 288°
2026-04-26 00:43 22.12941 55.66785 35879 ft 439 kts 288°
2026-04-26 00:44 22.14620 55.60460 35881 ft 439 kts 288°
2026-04-26 00:44 22.15841 55.53996 35891 ft 441 kts 279°
2026-04-26 00:45 22.16477 55.47413 35896 ft 441 kts 277°
2026-04-26 00:45 22.17003 55.40813 35897 ft 441 kts 277°
2026-04-26 00:46 22.17517 55.34225 35897 ft 441 kts 277°
2026-04-26 00:46 22.18041 55.27632 35898 ft 441 kts 277°
2026-04-26 00:47 22.18572 55.21035 35897 ft 441 kts 277°
2026-04-26 00:47 22.19101 55.14435 35897 ft 441 kts 277°
2026-04-26 00:48 22.19625 55.07840 35897 ft 441 kts 277°
2026-04-26 00:48 22.20149 55.01283 35896 ft 441 kts 277°
2026-04-26 00:49 22.20674 54.94686 35897 ft 441 kts 277°
2026-04-26 00:49 22.21198 54.88094 35898 ft 441 kts 277°
2026-04-26 00:50 22.21719 54.81491 35896 ft 442 kts 277°
2026-04-26 00:50 22.22241 54.74877 35899 ft 443 kts 277°
2026-04-26 00:51 22.22757 54.68262 35898 ft 442 kts 277°
2026-04-26 00:51 22.23270 54.61650 35897 ft 442 kts 277°
2026-04-26 00:52 22.23780 54.55041 35887 ft 442 kts 277°
2026-04-26 00:52 22.24289 54.48431 35887 ft 442 kts 277°
2026-04-26 00:53 22.24794 54.41818 35888 ft 442 kts 277°
2026-04-26 00:53 22.25298 54.35200 35888 ft 442 kts 277°
2026-04-26 00:54 22.25799 54.28583 35887 ft 443 kts 277°
2026-04-26 00:54 22.26294 54.21999 35888 ft 443 kts 277°
2026-04-26 00:55 22.26790 54.15376 35888 ft 442 kts 277°
2026-04-26 00:55 22.27283 54.08759 35888 ft 442 kts 277°
2026-04-26 00:56 22.27772 54.02140 35891 ft 442 kts 277°
2026-04-26 00:56 22.28260 53.95519 35897 ft 442 kts 277°
2026-04-26 00:57 22.28584 53.91087 35897 ft 443 kts 277°